AirNav   Air Wisconsin Airman Trainee
 
 1061 users online  

84Y Bloomfield Municipal Airport
Bloomfield, Nebraska, USA

GOING TO BLOOMFIELD?


FAA INFORMATION EFFECTIVE 31 JANUARY 2019

Location

FAA Identifier: 84Y
Lat/Long: 42-34-47.0080N / 097-40-25.2310W
42-34.783467N / 097-40.420517W
42.5797244 / -97.6736753
(estimated)
Elevation: 1673 ft. / 509.9 m (surveyed)
Variation: 07E (1985)
From city: 2 miles SW of BLOOMFIELD, NE
Time zone: UTC -6 (UTC -5 during Daylight Saving Time)
Zip code: 68718

Airport Operations

Airport use: Open to the public
Activation date: 02/1951
Control tower: no
ARTCC: MINNEAPOLIS CENTER
FSS: COLUMBUS FLIGHT SERVICE STATION
NOTAMs facility: OLU (NOTAM-D service available)
Attendance: MON-FRI 0800-1700
FOR ATTENDANT CALL (402) 373-2452.
Wind indicator: lighted
Segmented circle: no
Lights: ACTVT LIRL RY 14/32 - CTAF.
Beacon: white-green (lighted land airport)
Operates sunset to sunrise.

Airport Communications

CTAF: 122.9

Nearby radio navigation aids

VOR radial/distance  VOR name  Freq  Var
YKNr205/24.0YANKTON VOR/DME111.4007E
OFKr335/37.1NORFOLK VOR/DME109.6008E

 
NDB name  Hdg/Dist  Freq  Var  ID
WAGNER129/39.839208EAGZ .- --. --..

Airport Services

Parking: tiedowns
Airframe service: NONE
Powerplant service: NONE

Runway Information

Runway 14/32

Dimensions: 2700 x 50 ft. / 823 x 15 m
Surface: asphalt, in good condition
Runway edge lights: low intensity
LGTD THR RY 14 RELCTD 200 FT; 2500 FT OF RY 14/32 USBL AT NGT. LIRL RY 14/32 OUT OF SERVICE INDEFINITELY.
RUNWAY 14  RUNWAY 32
Gradient: 0.6%0.6%
Traffic pattern: leftleft
Displaced threshold: 200 ft.no
Markings: basic, in good conditionbasic, in good condition
Obstructions: 3 ft. fence, 200 ft. from runway, 70 ft. right of centerline
+3' FENCE 120' FROM RWY END 125'R.
15 ft. hill, 600 ft. from runway, 205 ft. right of centerline, 26:1 slope to clear

Airport Ownership and Management from official FAA records

Ownership: Publicly-owned
Owner: BLOOMFIELD AIRPORT AUTHORITY
P.O, BOX 707
BLOOMFIELD, NE 68718-0707
Phone 402-373-4240
STEVEN L. ARCHBOLD, CHAIRMAN OF AIRPORT AUTHORITY RESIDENCE. PHONE 402-373-4237.
Manager: STEVE BARNEY
BOX 281
BLOOMFIELD, NE 68718
Phone 402-373-2452
RESIDENCE PHONE 402-373-4494.

Airport Operational Statistics

Aircraft based on the field: 5
Single engine airplanes: 5
    
Aircraft operations: avg 78/week *
68% local general aviation
32% transient general aviation
* for 12-month period ending 26 July 2016

Instrument Procedures

There are no published instrument procedures at 84Y.

Some nearby airports with instrument procedures:

6K3 - Creighton Municipal Airport (11 nm SW)
0B4 - Hartington Municipal Airport / Bud Becker Field (19 nm E)
KYKN - Chan Gurney Municipal Airport (24 nm NE)
4V9 - Antelope County Airport (32 nm SW)
KVMR - Harold Davidson Field Airport (34 nm E)
 
Loc | Ops | Rwys | IFR | FBO | Links
Com | Nav | Svcs | Stats | Notes

Silverhawk Aviation, Inc.
AirBoss

 
Area around 84Y (Bloomfield Municipal Airport)
 
Road maps at: MapQuest Bing Google
 
Aerial photo
WARNING: Photo may not be current or correct
Aerial photo of 84Y (Bloomfield Municipal Airport)
Photo by Steve Hamilton
Photo taken 01-Oct-2005

Do you have a better or more recent aerial photo of Bloomfield Municipal Airport that you would like to share? If so, please send us your photo.

 
Sectional chart

 
Airport distance calculator
Flying to Bloomfield Municipal Airport? Find the distance to fly.

From to 84Y

Sunrise and sunset
Times for 19-Feb-2019
 Local
(UTC-6)
 Zulu
(UTC)
Morning civil twilight06:5412:54
Sunrise07:2313:23
Sunset18:0600:06
Evening civil twilight18:3500:35

Current date and time
Zulu (UTC)  20-Feb-2019 00:32:46
Local (UTC-6)  19-Feb-2019 18:32:46
 
METAR
KYKN 
24nm NE 
192356Z AUTO 09007KT 10SM OVC065 M09/M12 A3023 RMK AO2 SLP280 T10891122 11072 21089 56016 FZRANO
KLCG 
37nm SE 
200015Z AUTO 09008KT 3SM -SN SCT027 BKN042 OVC050 M08/M13 A3020 RMK AO2 T10831135
KOFK 
37nm S 
200022Z AUTO 09009KT 1 1/4SM -SN BR BKN018 OVC029 M09/M10 A3014 RMK AO2 P0001 T10891100
KAGZ 
40nm NW 
SuperAWOS
200002Z AUTO 10010KT 10SM M08/M11
KONL 
44nm W 
200015Z AUTO 14010G14KT 10SM SCT013 BKN065 OVC070 M07/M10 A3011 RMK AO2 T10731097
TAF
KOFK 
37nm S 
191735Z 1918/2018 12008KT P6SM OVC030 FM200000 10010KT 6SM -SN OVC025 FM200300 10010KT 2SM -SN OVC010 FM200500 10008KT 1/2SM SN FG OVC004 FM201200 36008KT 1/2SM SN FG OVC004
NOTAMs
Click for the latest NOTAMs
NOTAMs are issued by the DoD/FAA and will open in a separate window not controlled by AirNav.

 

 
 

Would you like to see your business listed on this page?

 If your business provides an interesting product or service to pilots, flight crews, aircraft, or users of the Bloomfield Municipal Airport, you should consider listing it here.  To start the listing process, click on the button below
 
Add a business
 

Other Pages about Bloomfield Municipal Airport

Update a link
 
Copyright © AirNav, LLC. All rights reserved. Privacy Policy  Contact